Lid_Strength_Index
3 3 3 4 4 5 6 6 7 8 9 10 10 10 10 8 8 8 8 8 7 7 7 6 4 3 4 5 5 6 8 9
4 4 4 5 5 6 6 8 9 9 10 10 10 11 10 9 9 8 8 8 8 8 7 6 6 5 5 5 6 7 8 8
4 5 5 5 5 6 7 8 9 9 9 10 11 11 10 10 9 9 8 8 7 7 8 7 8 7 7 7 6 8 8 8
5 6 5 5 6 6 7 8 9 9 9 10 11 11 10 10 10 9 8 7 7 8 8 8 8 7 8 8 7 7 9 10
5 5 5 6 6 6 8 8 8 9 9 11 11 11 12 10 11 10 8 7 7 7 7 8 9 9 9 8 8 8 8 10
5 4 5 6 8 8 7 8 8 9 10 11 11 12 11 11 11 10 10 9 9 8 8 8 9 9 9 9 9 9 9 9
5 4 5 6 8 8 8 8 9 10 10 11 11 11 11 11 11 11 10 9 9 9 9 9 9 10 10 10 10 10 10 10
6 5 6 7 8 8 8 8 9 10 10 10 11 11 10 10 10 10 9 9 9 9 9 9 9 9 10 10 10 10 11 10
5 5 5 6 7 8 8 8 9 10 10 10 11 11 10 10 10 10 10 10 10 9 9 9 9 9 10 10 10 10 11 10
5 5 5 5 6 6 7 8 8 9 9 10 11 11 11 11 10 10 10 10 9 9 9 9 9 10 10 10 11 11 11 10
5 5 5 5 5 6 6 7 8 9 10 10 11 11 11 11 10 10 10 10 10 10 10 10 10 10 10 10 11 11 10 11
5 5 5 5 5 6 6 7 8 9 10 10 10 11 11 11 10 10 10 10 10 10 10 10 10 10 10 11 11 10 11 11
5 4 5 6 6 6 6 6 8 8 9 9 10 11 11 11 10 9 9 10 10 10 10 10 9 10 10 10 10 10 11 11
5 5 6 5 6 6 6 7 8 9 9 9 10 10 11 11 9 9 9 10 10 10 10 10 10 10 10 10 11 11 10 11
5 5 6 5 6 6 6 7 7 8 9 9 10 10 10 9 9 9 9 9 10 10 9 9 9 10 10 10 10 11 10 11
6 6 6 6 6 5 6 7 7 7 8 9 9 9 9 9 8 9 9 9 10 9 9 10 10 10 10 11 11 10 10 10
6 6 6 6 6 5 6 7 7 7 8 9 9 8 8 8 8 8 9 9 9 9 10 10 10 10 10 10 10 10 10 10
6 5 6 5 5 5 7 7 7 7 8 8 9 8 8 8 8 8 9 9 10 10 10 10 11 10 10 9 10 10 10 10
5 5 5 5 5 5 6 7 7 7 8 8 8 8 8 8 8 8 9 9 9 9 10 10 11 11 10 9 10 11 11 10